334  
NZUS93 KARX 081959  
HRRWXR  
 
CURRENT HOURLY OBSERVATIONS ACROSS  
MUCH OF THE UPPER MISSISSIPPI VALLEY  
NATIONAL WEATHER SERVICE LA CROSSE WI  
200 PM CST THU DEC 08 2022  
 
   
..SOUTHEAST MINNESOTA
 
 
 
CITY SKY/WX TMP DP RH WIND PRES REMARKS  
ROCHESTER PTSUNNY 33 26 75 SE9 30.27F WCI 25  
WINONA SUNNY 32 25 74 SE8 30.34F WCI 25  
AUSTIN SUNNY 34 28 80 SE7 30.25F WCI 28  
ALBERT LEA CLOUDY 30 28 93 SE9 30.25F FOG WCI 22  
DODGE CENTER N/A 34 27 75 SE8 30.25F WCI 27  
PRESTON SUNNY 31 25 80 SE8 30.28F WCI 23  
OWATONNA MOSUNNY 32 27 80 SE9 30.26F WCI 24  
FARIBAULT SUNNY 34 27 75 CALM 30.26F  

 
   
..ELSEWHERE IN MINNESOTA
 
 
 
CITY SKY/WX TMP DP RH WIND PRES REMARKS  
MINNEAPOLIS PTSUNNY 27 18 69 SE7 30.29F WCI 19  
INTNL FALLS SUNNY 21 11 65 SW7 30.22F WCI 12  
DULUTH NOT AVBL  
RED WING SUNNY 28 21 74 SE5 30.30F WCI 23  
REDWOOD FALLS CLOUDY 29 22 75 SE13 30.23F HAZE WCI 19  
MANKATO CLOUDY 28 25 88 SE10 30.26F FOG WCI 19  
WORTHINGTON CLOUDY 28 27 96 SE8 30.19S FOG WCI 20  
FAIRMONT NOT AVBL  

 
   
..SOUTHWEST WISCONSIN
 
 
 
CITY SKY/WX TMP DP RH WIND PRES REMARKS  
LA CROSSE CLOUDY 31 24 75 CALM 30.34F  
PRAIRIE DU CHI CLOUDY 31 27 86 CALM 30.33S FOG  
BOSCOBEL CLOUDY 36 28 73 VRB3 30.34F  
LONE ROCK NOT AVBL  
PLATTEVILLE CLOUDY 37 29 74 E7 30.31F WCI 32  
FORT MC COY NOT AVBL  
MAUSTON-NEW LI SUNNY 37 25 64 CALM 30.32F  
VIROQUA CLOUDY 31 31 100 E7 30.30F WCI 24  
WIS DELLS MOSUNNY 37 29 72 SE5 30.32F WCI 34  

 
   
..ELSEWHERE IN WISCONSIN
 
 
 
CITY SKY/WX TMP DP RH WIND PRES REMARKS  
MILWAUKEE CLOUDY 38 26 62 NE12 30.35F WCI 30  
MADISON PTSUNNY 36 28 73 E8 30.32F WCI 30  
GREEN BAY SUNNY 34 22 61 S3 30.38F  
EAU CLAIRE NOT AVBL  
BLACK RVR FLS SUNNY 32 25 76 W3 30.33F  
MEDFORD SUNNY 30 23 75 SE3 30.30F  
WAUSAU SUNNY 33 20 58 S5 30.32F WCI 29  
WIS RAPIDS SUNNY 37 22 54 VRB3 30.34F  
MARSHFIELD SUNNY 34 22 61 S5 30.31F WCI 30  
RICE LAKE SUNNY 27 22 82 SE5 30.32F WCI 21  

 
   
..NORTHEAST IOWA
 
 
 
CITY SKY/WX TMP DP RH WIND PRES REMARKS  
WATERLOO CLOUDY 35 30 82 E10 30.27F HAZE WCI 27  
DUBUQUE CLOUDY 36 30 79 E7 30.29F WCI 30  
DECORAH FOG 28 28 100 E6 30.29S VSB 3/4 WCI 22  
MASON CITY CLOUDY 30 29 96 SE9 30.26S FOG WCI 22  
CHARLES CITY CLOUDY 36 32 87 E9 30.26F WCI 29  
OELWEIN MOSUNNY 36 32 87 SE12 30.28F FOG WCI 27  

 
   
..ELSEWHERE IN IOWA
 
 
 
CITY SKY/WX TMP DP RH WIND PRES REMARKS  
DES MOINES CLOUDY 35 30 82 SE13 30.22F HAZE WCI 26  
IOWA CITY CLOUDY 41 33 73 E9 30.28F HAZE  
FORT DODGE CLOUDY 38 33 82 SE8 30.21F HAZE WCI 32  
MARSHALLTOWN CLOUDY 38 32 79 SE15 30.22F HAZE WCI 29  
CEDAR RAPIDS CLOUDY 39 32 76 E10 30.26F HAZE WCI 32  

 
   
..NORTHERN ILLINOIS
 
 
 
CITY SKY/WX TMP DP RH WIND PRES REMARKS  
CHICAGO-OHARE PTSUNNY 40 28 62 E12 30.32S WCI 33  
CHICAGO-MIDWAY PTSUNNY 39 28 64 E13 30.32F WCI 31  
MOLINE CLOUDY 45 33 63 E9 30.27F  
ROCKFORD CLOUDY 41 30 65 NE7 30.32F  
PEORIA CLOUDY 44 39 82 NE14 30.25F HAZE  

 
 
NOTE: "FAIR" INDICATES FEW OR NO CLOUDS BELOW 12,000 FEET WITH NO  
SIGNIFICANT WEATHER AND/OR OBSTRUCTIONS TO VISIBILITY. WIND  
SPEEDS ARE IN MILES-PER-HOUR.  
 
 
CLICK HERE TO GO TO PREVIOUS BULLETINS.

The Nexlab WI Page
The Nexlab IA Page
The Nexlab MN Page Main Text Page